Overview Statistics Trail Chart Weather Telemetry Raw packets
 

This is the latest recevied weather packets stored in our database for station/object KB4MLW-13. If no packets are shown the sender has not sent any weather packets the latest 10 day(s).

<< 52 53 54 55 56 57 58 >>
Time Temp. Humidity Pressure Rain* Wind** Luminosity Snow
1788295408 33.89° C 60% 1000.6 hPa 0 mm - - -
1788295348 33.89° C 63% 1000.6 hPa 0 mm - - -
1788295288 33.89° C 61% 1000.6 hPa 0 mm - - -
1788295228 33.89° C 60% 1000.4 hPa 0 mm - - -
1788295139 33.89° C 59% 1000.8 hPa 0 mm - - -
1788295048 33.89° C 58% 1000.7 hPa 0 mm - - -
1788294988 33.89° C 59% 1000.5 hPa 0 mm - - -
1788294899 33.89° C 61% 1000.6 hPa 0 mm - - -
1788294838 33.89° C 62% 1000.7 hPa 0 mm - - -
1788294750 33.89° C 65% 1000.9 hPa 0 mm - - -
1788294688 33.89° C 64% 1000.8 hPa 0 mm - - -
1788294631 33.33° C 63% 1000.5 hPa 0 mm - - -
1788294568 33.33° C 64% 1000.6 hPa 0 mm - - -
1788294508 33.33° C 64% 1000.7 hPa 0 mm - - -
1788294448 33.33° C 65% 1000.8 hPa 0 mm - - -
1788294358 33.33° C 66% 1000.6 hPa 0 mm - - -
1788294298 33.33° C 65% 1000.6 hPa 0 mm - - -
1788294238 33.33° C 68% 1000.8 hPa 0 mm - - -
1788294088 33.33° C 67% 1000.8 hPa 0 mm - - -
1788294028 33.33° C 66% 1000.7 hPa 0 mm - - -
1788293938 33.33° C 63% 1000.7 hPa 0 mm - - -
1788293849 33.33° C 63% 1000.7 hPa 0 mm - - -
1788293788 33.33° C 67% 1000.8 hPa 0 mm - - -
1788293728 33.33° C 63% 1000.7 hPa 0 mm - - -
1788293668 33.33° C 64% 1000.6 hPa 0 mm - - -

* Rain latest hour (hover to see other rain measurements)
** Current wind speed in m/s (hover to see current wind gust speed)